AX503 Weather Reports


time (UTC)temp
F
wind
direction
speed
knots
gust
knots
rain 1hr
in
rain 24hr
in
rain mn
in
humidity
%
barometer
mb
20260906113104 77 0 0.0 0.9 0.00 0.00 0.00 98 1010.8
20260906111549 77 0 0.0 0.0 0.00 0.00 0.00 98 1010.7
20260906110050 77 0 0.0 0.0 0.00 0.00 0.00 98 1010.6
20260906104556 77 0 0.0 0.0 0.00 0.00 0.00 98 1010.5
20260906103054 77 0 0.0 0.0 0.00 0.00 0.00 98 1010.5
20260906101556 78 0 0.0 0.0 0.00 0.00 0.00 98 1010.4
20260906100050 78 0 0.0 0.0 0.00 0.00 0.00 98 1010.2
20260906094559 78 0 0.0 0.0 0.00 0.00 0.00 98 1010.3
20260906093055 78 0 0.0 0.0 0.00 0.00 0.00 98 1010.1
20260906091551 78 0 0.0 0.0 0.00 0.00 0.00 98 1010.1
20260906090052 78 0 0.0 0.0 0.00 0.00 0.00 98 1010.1
20260906084557 78 0 0.0 0.0 0.00 0.00 0.00 98 1010.2
20260906083055 78 0 0.0 0.0 0.00 0.00 0.00 98 1010.4
20260906081556 78 0 0.0 0.0 0.00 0.00 0.00 98 1010.2
20260906080052 78 0 0.0 0.0 0.00 0.00 0.00 98 1010.3
20260906074600 78 0 0.0 0.0 0.00 0.00 0.00 98 1010.3
20260906073100 78 0 0.0 0.0 0.00 0.00 0.00 98 1010.3
20260906071559 78 0 0.0 0.0 0.00 0.00 0.00 98 1010.3
20260906070053 78 0 0.0 0.0 0.00 0.00 0.00 98 1010.4
20260906064602 79 0 0.0 0.0 0.00 0.00 0.00 98 1010.5
20260906063056 79 0 0.0 0.0 0.00 0.00 0.00 97 1010.4
20260906061556 79 0 0.0 0.0 0.00 0.00 0.00 97 1010.7
20260906060128 79 0 0.0 0.0 0.00 0.00 0.00 97 1010.8
20260906054550 79 0 0.0 0.0 0.00 0.00 0.00 97 1010.9
20260906053043 79 0 0.0 0.0 0.00 0.00 0.00 97 1011.2
20260906051550 79 0 0.0 0.0 0.00 0.00 0.00 97 1011.1
20260906050105 79 0 0.0 0.0 0.00 0.00 0.00 97 1011.3
20260906044557 79 0 0.0 0.0 0.00 0.00 0.00 96 1011.2
20260906043057 80 0 0.0 0.0 0.00 0.00 0.00 96 1011.3
20260906041554 80 0 0.0 0.0 0.00 0.00 0.00 96 1011.2
20260906040052 80 0 0.0 0.0 0.00 0.00 0.00 96 1011.4
20260906034556 80 0 0.0 0.0 0.00 0.00 0.00 96 1011.5
20260906033055 81 0 0.0 0.0 0.00 0.00 0.00 96 1011.7
20260906031613 81 0 0.0 0.9 0.00 0.00 0.00 96 1011.8
20260906030051 81 0 0.0 0.0 0.00 0.00 0.00 95 1011.8
20260906024557 81 0 0.0 2.6 0.00 0.00 0.00 95 1011.5
20260906023108 81 0 0.0 0.9 0.00 0.00 0.00 95 1011.2
20260906021552 81 0 0.0 0.9 0.00 0.00 0.00 94 1011.4
20260906014555 82 0 0.0 0.9 0.00 0.00 0.00 93 1011.4
20260906013054 82 0 0.0 1.7 0.00 0.00 0.00 93 1011.4
20260906011556 82 0 0.0 0.0 0.00 0.00 0.00 92 1011.2
20260906010104 82 0 0.0 0.0 0.00 0.00 0.00 90 1011.2
20260906004558 82 0 0.0 0.0 0.00 0.00 0.00 89 1011.1
20260906003052 83 0 0.0 0.0 0.00 0.00 0.00 87 1011.4
20260906001549 83 0 0.0 0.0 0.00 0.00 0.00 85 1011.1
20260906000108 84 0 0.0 0.0 0.00 0.00 0.00 84 1011.1
20260905234556 85 0 0.0 0.0 0.00 0.00 0.00 83 1011.1
20260905233056 86 0 0.0 0.0 0.00 0.00 0.00 81 1010.9
20260905231550 87 0 0.0 0.0 0.00 0.00 0.00 79 1010.8
20260905230059 88 0 0.0 0.0 0.00 0.00 0.00 78 1010.8
20260905224552 88 0 0.0 0.0 0.00 0.00 0.00 76 1010.7
20260905223049 89 0 0.0 0.0 0.00 0.00 0.00 76 1010.6
20260905221600 91 0 0.0 0.9 0.00 0.00 0.00 71 1010.8
20260905220054 92 0 0.0 3.5 0.00 0.00 0.00 73 1010.9
20260905214606 93 0 0.0 0.0 0.00 0.00 0.00 71 1011.0
20260905213104 92 0 0.0 0.9 0.00 0.00 0.00 70 1011.0
20260905211554 92 0 0.0 0.9 0.00 0.00 0.00 70 1010.8
20260905210104 91 271 0.0 3.5 0.00 0.00 0.00 73 1010.7
20260905204548 91 0 0.0 0.9 0.00 0.00 0.00 70 1010.6
20260905203100 91 0 0.0 0.9 0.00 0.00 0.00 71 1010.3
20260905201552 91 0 0.0 0.9 0.00 0.00 0.00 70 1010.5
20260905200105 92 206 0.0 1.7 0.00 0.00 0.00 68 1010.5
20260905194600 91 257 0.0 2.6 0.00 0.00 0.00 67 1010.9
20260905193054 91 0 0.0 3.5 0.00 0.00 0.00 68 1011.2
20260905191552 91 0 0.0 2.6 0.00 0.00 0.00 70 1011.4
20260905190054 90 0 0.0 0.9 0.00 0.00 0.00 70 1011.5
20260905184603 90 0 0.0 1.7 0.00 0.00 0.00 72 1011.8
20260905183055 90 0 0.0 0.9 0.00 0.00 0.00 73 1012.0
20260905181553 91 72 0.0 0.9 0.00 0.00 0.00 71 1012.2
20260905180111 90 0 0.0 0.9 0.00 0.00 0.00 74 1012.4
20260905174556 89 241 0.0 1.7 0.00 0.00 0.00 74 1012.8
20260905173112 89 0 0.0 1.7 0.00 0.00 0.00 76 1013.0
20260905171555 89 0 0.0 2.6 0.00 0.00 0.00 74 1013.2
20260905170051 89 0 0.0 2.6 0.00 0.00 0.00 77 1013.3
20260905164603 87 0 0.0 1.7 0.00 0.00 0.00 77 1013.4
20260905163055 86 0 0.0 2.6 0.00 0.00 0.00 80 1013.6
20260905161602 85 0 0.0 2.6 0.00 0.00 0.00 83 1013.8
20260905160056 85 0 0.0 2.6 0.00 0.00 0.00 82 1014.1
20260905154602 84 37 0.0 3.5 0.00 0.00 0.00 84 1014.2
20260905153054 83 270 0.0 1.7 0.00 0.00 0.00 88 1014.3
20260905151552 82 0 0.0 0.9 0.00 0.00 0.00 90 1014.5
20260905150057 80 0 0.0 0.9 0.00 0.00 0.00 93 1014.6
20260905144556 79 0 0.0 0.9 0.00 0.00 0.00 95 1014.5
20260905143055 79 0 0.0 0.9 0.00 0.00 0.00 97 1014.6
20260905141550 78 0 0.0 0.9 0.00 0.00 0.00 98 1014.5
20260905140058 77 0 0.0 0.9 0.00 0.00 0.00 99 1014.4
20260905134601 77 0 0.0 0.0 0.00 0.00 0.00 99 1014.6
20260905133052 76 0 0.0 0.9 0.00 0.00 0.00 99 1014.5
20260905131548 76 0 0.0 0.9 0.00 0.00 0.00 99 1014.7
20260905130051 76 0 0.0 0.9 0.00 0.00 0.00 99 1014.6
20260905124555 76 0 0.0 0.0 0.00 0.00 0.00 99 1014.2
20260905123103 76 0 0.0 0.9 0.00 0.00 0.00 99 1014.3
20260905121553 75 0 0.0 0.0 0.00 0.00 0.00 99 1014.3
20260905120100 75 0 0.0 0.0 0.00 0.00 0.00 99 1014.2
20260905114600 75 0 0.0 0.0 0.00 0.00 0.00 98 1013.9